Time,TemperatureF,DewpointF,PressureIn,WindDirection,WindDirectionDegrees,WindSpeedMPH,WindSpeedGustMPH,Humidity,HourlyPrecipIn,Conditions,Clouds,dailyrainin,SoftwareType,DateUTC
2013-02-22 00:01:00,23.0,21.0,30.29,East,100,13.0,18.0,92,0.00,,,-99.99,,2013-02-22 05:01:00,
2013-02-22 00:11:00,23.0,21.0,30.27,East,100,14.0,17.0,92,0.00,,,-99.99,,2013-02-22 05:11:00,
2013-02-22 00:21:00,25.0,21.0,30.26,ESE,110,9.0,20.0,85,0.00,,,-99.99,,2013-02-22 05:21:00,
2013-02-22 00:32:00,25.0,21.0,30.26,ESE,110,9.0,17.0,85,0.00,,,-99.99,,2013-02-22 05:32:00,
2013-02-22 00:41:00,25.0,21.0,30.25,East,90,12.0,17.0,85,0.00,,,-99.99,,2013-02-22 05:41:00,
2013-02-22 00:52:00,25.0,21.0,30.25,East,100,14.0,18.0,85,0.00,,,-99.99,,2013-02-22 05:52:00,
2013-02-22 01:01:00,25.0,21.0,30.25,East,100,14.0,18.0,85,0.00,,,-99.99,,2013-02-22 06:01:00,
2013-02-22 01:11:00,25.0,21.0,30.24,East,100,7.0,13.0,85,0.00,,,-99.99,,2013-02-22 06:11:00,
2013-02-22 01:21:00,25.0,23.0,30.25,East,100,9.0,17.0,92,0.00,,,-99.99,,2013-02-22 06:21:00,
2013-02-22 01:31:00,25.0,23.0,30.24,East,100,10.0,17.0,92,0.00,,,-99.99,,2013-02-22 06:31:00,
2013-02-22 01:41:00,25.0,23.0,30.25,ESE,110,8.0,17.0,92,0.00,,,-99.99,,2013-02-22 06:41:00,
2013-02-22 01:51:00,25.0,23.0,30.25,East,100,10.0,17.0,92,0.00,,,-99.99,,2013-02-22 06:51:00,
2013-02-22 02:01:00,25.0,23.0,30.25,East,100,10.0,-999.0,92,0.00,,,-99.99,,2013-02-22 07:01:00,
2013-02-22 02:11:00,25.0,23.0,30.25,East,100,14.0,20.0,92,0.00,,,-99.99,,2013-02-22 07:11:00,
2013-02-22 02:21:00,25.0,25.0,30.24,East,80,13.0,17.0,100,0.00,,,-99.99,,2013-02-22 07:21:00,
2013-02-22 02:31:00,25.0,25.0,30.22,East,90,13.0,17.0,100,0.00,,,-99.99,,2013-02-22 07:31:00,
2013-02-22 02:42:00,25.0,25.0,30.21,East,90,15.0,20.0,100,0.00,,,-99.99,,2013-02-22 07:42:00,
2013-02-22 02:51:00,25.0,25.0,30.21,East,100,13.0,18.0,100,0.00,,,-99.99,,2013-02-22 07:51:00,
2013-02-22 03:01:00,25.0,25.0,30.21,East,100,13.0,18.0,100,0.00,,,-99.99,,2013-02-22 08:01:00,
2013-02-22 03:11:00,25.0,23.0,30.21,East,100,12.0,20.0,92,0.00,,,-99.99,,2013-02-22 08:11:00,
2013-02-22 03:21:00,25.0,21.0,30.21,East,100,12.0,-999.0,85,0.00,,,-99.99,,2013-02-22 08:21:00,
2013-02-22 03:31:00,23.0,19.0,30.20,East,100,14.0,18.0,85,0.00,,,-99.99,,2013-02-22 08:31:00,
2013-02-22 03:41:00,23.0,19.0,30.20,East,90,15.0,18.0,85,0.00,,,-99.99,,2013-02-22 08:41:00,
2013-02-22 03:51:00,23.0,19.0,30.18,East,90,14.0,17.0,85,0.00,,,-99.99,,2013-02-22 08:51:00,
2013-02-22 04:02:00,23.0,19.0,30.18,East,90,14.0,17.0,85,0.00,,,-99.99,,2013-02-22 09:02:00,
2013-02-22 04:11:00,23.0,19.0,30.17,East,80,13.0,18.0,85,0.00,,,-99.99,,2013-02-22 09:11:00,
2013-02-22 04:21:00,23.0,19.0,30.16,East,80,13.0,18.0,85,0.00,,,-99.99,,2013-02-22 09:21:00,
2013-02-22 04:31:00,23.0,19.0,30.16,East,80,14.0,-999.0,85,0.00,,,-99.99,,2013-02-22 09:31:00,
2013-02-22 04:41:00,23.0,19.0,30.15,East,80,16.0,-999.0,85,0.00,,,-99.99,,2013-02-22 09:41:00,
2013-02-22 04:51:00,23.0,19.0,30.14,East,80,15.0,21.0,85,0.00,,,-99.99,,2013-02-22 09:51:00,
2013-02-22 05:01:00,23.0,19.0,30.14,East,80,15.0,21.0,85,0.00,,,-99.99,,2013-02-22 10:01:00,
2013-02-22 05:11:00,23.0,18.0,30.13,East,80,14.0,20.0,79,0.00,,,-99.99,,2013-02-22 10:11:00,
2013-02-22 05:21:00,23.0,19.0,30.13,East,80,14.0,20.0,85,0.00,,,-99.99,,2013-02-22 10:21:00,
2013-02-22 05:31:00,25.0,19.0,30.13,East,90,13.0,-999.0,79,0.00,,,-99.99,,2013-02-22 10:31:00,
2013-02-22 05:42:00,23.0,19.0,30.13,East,80,13.0,22.0,85,0.00,,,-99.99,,2013-02-22 10:42:00,
2013-02-22 05:51:00,23.0,19.0,30.14,East,80,12.0,22.0,85,0.00,,,-99.99,,2013-02-22 10:51:00,
2013-02-22 06:01:00,23.0,19.0,30.14,East,80,12.0,22.0,85,0.00,,,-99.99,,2013-02-22 11:01:00,
2013-02-22 06:11:00,23.0,19.0,30.14,East,80,9.0,-999.0,85,0.00,,,-99.99,,2013-02-22 11:11:00,
2013-02-22 06:21:00,23.0,18.0,30.14,East,90,10.0,-999.0,79,0.00,,,-99.99,,2013-02-22 11:21:00,
2013-02-22 06:31:00,23.0,18.0,30.14,East,90,12.0,17.0,79,0.00,,,-99.99,,2013-02-22 11:31:00,
2013-02-22 06:42:00,23.0,18.0,30.14,East,90,9.0,-999.0,79,0.00,,,-99.99,,2013-02-22 11:42:00,
2013-02-22 06:52:00,25.0,18.0,30.13,East,100,10.0,-999.0,73,0.00,,,-99.99,,2013-02-22 11:52:00,
2013-02-22 07:01:00,25.0,18.0,30.13,East,100,10.0,-999.0,73,0.00,,,-99.99,,2013-02-22 12:01:00,
2013-02-22 07:11:00,25.0,18.0,30.11,East,90,14.0,20.0,73,0.00,,,0.00,,2013-02-22 12:11:00,
2013-02-22 07:21:00,23.0,18.0,30.09,East,80,14.0,21.0,79,0.00,,,0.00,,2013-02-22 12:21:00,
2013-02-22 07:32:00,23.0,18.0,30.09,East,80,12.0,21.0,79,0.00,,,0.00,,2013-02-22 12:32:00,
2013-02-22 07:42:00,23.0,19.0,30.09,East,80,12.0,17.0,85,0.00,,,0.00,,2013-02-22 12:42:00,
2013-02-22 07:51:00,21.0,19.0,30.09,East,80,12.0,-999.0,92,0.00,,,0.00,,2013-02-22 12:51:00,
2013-02-22 08:01:00,21.0,19.0,30.09,East,80,12.0,-999.0,92,0.00,,,0.00,,2013-02-22 13:01:00,
2013-02-22 08:11:00,21.0,19.0,30.08,East,100,10.0,-999.0,92,0.00,,,-99.99,,2013-02-22 13:11:00,
2013-02-22 08:22:00,21.0,19.0,30.06,ENE,70,14.0,-999.0,92,0.00,,,-99.99,,2013-02-22 13:22:00,
2013-02-22 08:31:00,21.0,19.0,30.06,East,80,14.0,-999.0,92,0.00,,,-99.99,,2013-02-22 13:31:00,
2013-02-22 08:41:00,21.0,19.0,30.04,ENE,70,17.0,-999.0,92,0.00,,,-99.99,,2013-02-22 13:41:00,
2013-02-22 08:51:00,21.0,19.0,30.04,ENE,70,15.0,-999.0,92,0.00,,,-99.99,,2013-02-22 13:51:00,
2013-02-22 09:01:00,21.0,19.0,30.04,ENE,70,15.0,-999.0,92,0.00,,,-99.99,,2013-02-22 14:01:00,
2013-02-22 09:11:00,23.0,19.0,30.02,East,80,18.0,22.0,85,0.00,,,-99.99,,2013-02-22 14:11:00,
2013-02-22 09:21:00,23.0,21.0,30.00,East,80,17.0,24.0,92,0.00,,,-99.99,,2013-02-22 14:21:00,
2013-02-22 09:31:00,23.0,21.0,29.99,East,80,15.0,20.0,92,0.00,,,-99.99,,2013-02-22 14:31:00,
2013-02-22 09:41:00,23.0,21.0,30.00,East,80,14.0,20.0,92,0.00,,,-99.99,,2013-02-22 14:41:00,
2013-02-22 09:52:00,25.0,21.0,30.00,East,90,14.0,20.0,85,0.00,,,-99.99,,2013-02-22 14:52:00,
2013-02-22 10:01:00,25.0,21.0,30.00,East,90,14.0,20.0,85,0.00,,,-99.99,,2013-02-22 15:01:00,
2013-02-22 10:11:00,25.0,21.0,29.99,East,90,10.0,-999.0,85,0.00,,,-99.99,,2013-02-22 15:11:00,
2013-02-22 10:21:00,25.0,23.0,29.98,East,90,13.0,22.0,92,0.00,,,-99.99,,2013-02-22 15:21:00,
2013-02-22 10:31:00,25.0,23.0,29.99,East,90,13.0,18.0,92,0.00,,,-99.99,,2013-02-22 15:31:00,
2013-02-22 10:41:00,25.0,23.0,29.97,East,80,12.0,17.0,92,0.00,,,-99.99,,2013-02-22 15:41:00,
2013-02-22 10:51:00,25.0,23.0,29.97,East,90,14.0,20.0,92,0.00,,,-99.99,,2013-02-22 15:51:00,
2013-02-22 11:01:00,25.0,23.0,29.97,East,90,14.0,20.0,92,0.00,,,-99.99,,2013-02-22 16:01:00,
2013-02-22 11:11:00,25.0,23.0,29.96,East,90,15.0,21.0,92,0.00,,,-99.99,,2013-02-22 16:11:00,
2013-02-22 11:21:00,27.0,23.0,29.96,East,90,12.0,17.0,86,0.00,,,-99.99,,2013-02-22 16:21:00,
2013-02-22 11:31:00,25.0,23.0,29.95,East,90,15.0,17.0,92,0.00,,,-99.99,,2013-02-22 16:31:00,
2013-02-22 11:41:00,27.0,23.0,29.95,East,90,10.0,18.0,86,0.00,,,-99.99,,2013-02-22 16:41:00,
2013-02-22 11:52:00,27.0,23.0,29.95,East,90,13.0,20.0,86,0.00,,,-99.99,,2013-02-22 16:52:00,
2013-02-22 12:01:00,27.0,23.0,29.95,East,90,13.0,20.0,86,0.00,,,-99.99,,2013-02-22 17:01:00,
2013-02-22 12:11:00,27.0,23.0,29.95,East,100,9.0,-999.0,86,0.00,,,-99.99,,2013-02-22 17:11:00,
2013-02-22 12:21:00,27.0,23.0,29.94,East,100,12.0,18.0,86,0.00,,,-99.99,,2013-02-22 17:21:00,
2013-02-22 12:31:00,27.0,23.0,29.94,East,100,8.0,18.0,86,0.00,,,-99.99,,2013-02-22 17:31:00,
2013-02-22 12:41:00,27.0,21.0,29.93,East,100,10.0,18.0,79,0.00,,,-99.99,,2013-02-22 17:41:00,
2013-02-22 12:51:00,27.0,21.0,29.93,ESE,110,12.0,-999.0,79,0.00,,,-99.99,,2013-02-22 17:51:00,
2013-02-22 13:01:00,27.0,21.0,29.93,ESE,110,12.0,-999.0,79,0.00,,,-99.99,,2013-02-22 18:01:00,
2013-02-22 13:11:00,27.0,23.0,29.92,ESE,110,10.0,-999.0,86,0.00,,,-99.99,,2013-02-22 18:11:00,
2013-02-22 13:22:00,27.0,23.0,29.92,ESE,110,9.0,-999.0,86,0.00,,,-99.99,,2013-02-22 18:22:00,
2013-02-22 13:31:00,27.0,23.0,29.91,East,90,9.0,-999.0,86,0.00,,,-99.99,,2013-02-22 18:31:00,
2013-02-22 13:41:00,27.0,23.0,29.91,East,100,7.0,-999.0,86,0.00,,,-99.99,,2013-02-22 18:41:00,
2013-02-22 13:51:00,27.0,23.0,29.90,East,100,6.0,-999.0,86,0.00,,,-99.99,,2013-02-22 18:51:00,
2013-02-22 14:01:00,27.0,23.0,29.90,East,100,6.0,-999.0,86,0.00,,,-99.99,,2013-02-22 19:01:00,
2013-02-22 14:11:00,27.0,23.0,29.89,East,100,9.0,-999.0,86,0.00,,,-99.99,,2013-02-22 19:11:00,
2013-02-22 14:21:00,27.0,23.0,29.89,ESE,110,6.0,-999.0,86,-99.99,,,-99.99,,2013-02-22 19:21:00,
2013-02-22 14:31:00,27.0,23.0,29.89,East,100,5.0,-999.0,86,-99.99,,,-99.99,,2013-02-22 19:31:00,
2013-02-22 14:41:00,28.0,23.0,29.89,East,100,5.0,-999.0,79,0.00,,,-99.99,,2013-02-22 19:41:00,
2013-02-22 14:51:00,28.0,23.0,29.89,East,90,3.0,-999.0,79,0.00,,,-99.99,,2013-02-22 19:51:00,
2013-02-22 15:01:00,28.0,23.0,29.89,East,90,3.0,-999.0,79,0.00,,,-99.99,,2013-02-22 20:01:00,
2013-02-22 15:11:00,28.0,25.0,29.89,East,80,6.0,-999.0,86,0.00,,,-99.99,,2013-02-22 20:11:00,
2013-02-22 15:21:00,28.0,25.0,29.88,East,90,6.0,-999.0,86,0.00,,,-99.99,,2013-02-22 20:21:00,
2013-02-22 15:31:00,28.0,25.0,29.88,East,90,6.0,-999.0,86,0.00,,,-99.99,,2013-02-22 20:31:00,
2013-02-22 15:41:00,28.0,25.0,29.88,East,100,5.0,-999.0,86,0.00,,,-99.99,,2013-02-22 20:41:00,
2013-02-22 15:51:00,28.0,25.0,29.88,East,90,6.0,-999.0,86,0.00,,,-99.99,,2013-02-22 20:51:00,
2013-02-22 16:01:00,28.0,25.0,29.88,East,90,6.0,-999.0,86,0.00,,,-99.99,,2013-02-22 21:01:00,
2013-02-22 16:11:00,28.0,25.0,29.87,East,80,7.0,-999.0,86,0.00,,,-99.99,,2013-02-22 21:11:00,
2013-02-22 16:21:00,28.0,25.0,29.85,East,80,6.0,-999.0,86,0.00,,,-99.99,,2013-02-22 21:21:00,
2013-02-22 16:31:00,28.0,27.0,29.86,East,100,5.0,-999.0,92,0.00,,,-99.99,,2013-02-22 21:31:00,
2013-02-22 16:41:00,28.0,27.0,29.86,East,90,3.0,-999.0,92,0.00,,,-99.99,,2013-02-22 21:41:00,
2013-02-22 16:51:00,28.0,27.0,29.87,SE,130,5.0,-999.0,92,0.00,,,-99.99,,2013-02-22 21:51:00,
2013-02-22 17:01:00,28.0,27.0,29.87,SE,130,5.0,-999.0,92,0.00,,,-99.99,,2013-02-22 22:01:00,
2013-02-22 17:11:00,28.0,27.0,29.86,North,0,0.0,-999.0,92,0.00,,,-99.99,,2013-02-22 22:11:00,
2013-02-22 17:21:00,28.0,27.0,29.86,East,90,3.0,-999.0,92,0.00,,,-99.99,,2013-02-22 22:21:00,
2013-02-22 17:31:00,28.0,27.0,29.86,North,0,0.0,-999.0,92,0.00,,,-99.99,,2013-02-22 22:31:00,
2013-02-22 17:41:00,28.0,27.0,29.86,North,0,0.0,-999.0,92,0.00,,,-99.99,,2013-02-22 22:41:00,
2013-02-22 17:51:00,28.0,27.0,29.86,North,0,0.0,-999.0,92,0.00,,,-99.99,,2013-02-22 22:51:00,
2013-02-22 18:01:00,28.0,27.0,29.86,North,0,0.0,-999.0,92,0.00,,,-99.99,,2013-02-22 23:01:00,
2013-02-22 18:11:00,28.0,27.0,29.86,North,0,0.0,-999.0,92,0.00,,,-99.99,,2013-02-22 23:11:00,
2013-02-22 18:21:00,28.0,27.0,29.86,North,0,0.0,-999.0,92,0.00,,,-99.99,,2013-02-22 23:21:00,
2013-02-22 18:31:00,28.0,28.0,29.86,North,0,0.0,-999.0,100,0.00,,,-99.99,,2013-02-22 23:31:00,
2013-02-22 18:41:00,28.0,28.0,29.87,North,0,0.0,-999.0,100,0.00,,,-99.99,,2013-02-22 23:41:00,
2013-02-22 18:51:00,28.0,28.0,29.86,North,0,0.0,-999.0,100,0.00,,,-99.99,,2013-02-22 23:51:00,
2013-02-22 19:01:00,28.0,28.0,29.86,North,0,0.0,-999.0,100,0.00,,,-99.99,,2013-02-23 00:01:00,
2013-02-22 19:11:00,28.0,28.0,29.86,North,0,0.0,-999.0,100,0.00,,,-99.99,,2013-02-23 00:11:00,
2013-02-22 19:21:00,28.0,28.0,29.87,North,0,0.0,-999.0,100,0.00,,,-99.99,,2013-02-23 00:21:00,
2013-02-22 19:31:00,28.0,28.0,29.87,North,0,0.0,-999.0,100,0.00,,,-99.99,,2013-02-23 00:31:00,
2013-02-22 19:41:00,28.0,28.0,29.87,North,0,0.0,-999.0,100,0.00,,,-99.99,,2013-02-23 00:41:00,
2013-02-22 19:51:00,28.0,28.0,29.86,North,0,0.0,-999.0,100,0.00,,,-99.99,,2013-02-23 00:51:00,
2013-02-22 20:01:00,28.0,28.0,29.86,North,0,0.0,-999.0,100,0.00,,,-99.99,,2013-02-23 01:01:00,
2013-02-22 20:11:00,30.0,28.0,29.86,North,0,0.0,-999.0,92,0.00,,,-99.99,,2013-02-23 01:11:00,
2013-02-22 20:21:00,30.0,28.0,29.86,North,0,0.0,-999.0,92,0.00,,,-99.99,,2013-02-23 01:21:00,
2013-02-22 20:31:00,30.0,28.0,29.86,North,0,0.0,-999.0,92,0.00,,,-99.99,,2013-02-23 01:31:00,
2013-02-22 20:41:00,30.0,28.0,29.86,North,0,0.0,-999.0,92,0.00,,,-99.99,,2013-02-23 01:41:00,
2013-02-22 20:51:00,30.0,28.0,29.85,North,0,0.0,-999.0,92,0.00,,,-99.99,,2013-02-23 01:51:00,
2013-02-22 21:01:00,30.0,28.0,29.85,North,0,0.0,-999.0,92,0.00,,,-99.99,,2013-02-23 02:01:00,
2013-02-22 21:11:00,30.0,28.0,29.85,North,0,0.0,-999.0,92,0.00,,,-99.99,,2013-02-23 02:11:00,
2013-02-22 21:21:00,30.0,28.0,29.85,North,0,0.0,-999.0,92,0.00,,,-99.99,,2013-02-23 02:21:00,
2013-02-22 21:31:00,30.0,28.0,29.85,North,0,0.0,-999.0,92,0.00,,,-99.99,,2013-02-23 02:31:00,
2013-02-22 21:41:00,30.0,28.0,29.84,North,0,0.0,-999.0,92,0.00,,,-99.99,,2013-02-23 02:41:00,
2013-02-22 21:52:00,30.0,28.0,29.84,North,0,0.0,-999.0,92,0.00,,,-99.99,,2013-02-23 02:52:00,
2013-02-22 22:01:00,30.0,28.0,29.84,North,0,0.0,-999.0,92,0.00,,,-99.99,,2013-02-23 03:01:00,
2013-02-22 22:11:00,30.0,28.0,29.84,North,0,0.0,-999.0,92,0.00,,,-99.99,,2013-02-23 03:11:00,
2013-02-22 22:21:00,30.0,30.0,29.84,North,0,0.0,-999.0,100,0.00,,,-99.99,,2013-02-23 03:21:00,
2013-02-22 22:31:00,30.0,30.0,29.84,South,170,3.0,-999.0,100,0.00,,,-99.99,,2013-02-23 03:31:00,
2013-02-22 22:41:00,30.0,30.0,29.84,South,170,3.0,-999.0,100,0.00,,,-99.99,,2013-02-23 03:41:00,
2013-02-22 22:51:00,30.0,30.0,29.83,North,0,0.0,-999.0,100,0.00,,,-99.99,,2013-02-23 03:51:00,
2013-02-22 23:01:00,30.0,30.0,29.83,North,0,0.0,-999.0,100,0.00,,,-99.99,,2013-02-23 04:01:00,
2013-02-22 23:11:00,30.0,30.0,29.83,South,170,3.0,-999.0,100,0.00,,,-99.99,,2013-02-23 04:11:00,
2013-02-22 23:21:00,30.0,30.0,29.83,South,180,3.0,-999.0,100,0.00,,,-99.99,,2013-02-23 04:21:00,
2013-02-22 23:31:00,30.0,30.0,29.82,South,190,3.0,-999.0,100,0.00,,,-99.99,,2013-02-23 04:31:00,
2013-02-22 23:41:00,30.0,30.0,29.82,South,190,5.0,-999.0,100,0.00,,,-99.99,,2013-02-23 04:41:00,
2013-02-22 23:51:00,30.0,30.0,29.82,South,190,5.0,-999.0,100,0.00,,,-99.99,,2013-02-23 04:51:00,